TimeEST,TemperatureF,Dew PointF,Humidity,Sea Level PressureIn,VisibilityMPH,Wind Direction,Wind SpeedMPH,Gust SpeedMPH,PrecipitationIn,Events,Conditions,WindDirDegrees,DateUTC
12:15 AM,46.8,40.8,80,29.69,10.0,WSW,10.4,17.3,N/A,,Overcast,250,2012-12-17 05:15:00
12:35 AM,46.6,39.6,77,29.68,10.0,WSW,6.9,-,N/A,,Overcast,250,2012-12-17 05:35:00
12:54 AM,46.4,39.2,76,29.68,10.0,West,8.1,17.3,N/A,,Overcast,260,2012-12-17 05:54:00
1:15 AM,46.4,39.0,75,29.68,10.0,West,8.1,-,N/A,,Overcast,260,2012-12-17 06:15:00
1:35 AM,46.0,38.8,76,29.69,10.0,WSW,10.4,-,N/A,,Overcast,250,2012-12-17 06:35:00
1:54 AM,45.9,38.8,76,29.69,10.0,WSW,6.9,-,N/A,,Overcast,250,2012-12-17 06:54:00
2:15 AM,45.5,38.8,78,29.70,10.0,WSW,5.8,-,N/A,,Overcast,250,2012-12-17 07:15:00
2:35 AM,45.5,38.8,78,29.70,10.0,WSW,6.9,-,N/A,,Overcast,250,2012-12-17 07:35:00
2:54 AM,45.5,38.7,77,29.71,10.0,West,5.8,-,N/A,,Overcast,260,2012-12-17 07:54:00
3:15 AM,45.5,38.8,78,29.71,10.0,WSW,4.6,-,N/A,,Overcast,250,2012-12-17 08:15:00
3:34 AM,45.1,38.8,79,29.70,10.0,WSW,5.8,-,N/A,,Overcast,240,2012-12-17 08:34:00
3:54 AM,45.0,38.8,79,29.70,10.0,WSW,4.6,-,N/A,,Overcast,250,2012-12-17 08:54:00
4:15 AM,45.1,38.8,79,29.70,10.0,WSW,8.1,-,N/A,,Overcast,250,2012-12-17 09:15:00
4:34 AM,45.0,38.7,79,29.70,10.0,WSW,5.8,-,N/A,,Overcast,250,2012-12-17 09:34:00
4:55 AM,45.0,38.3,77,29.71,10.0,WSW,4.6,-,N/A,,Overcast,250,2012-12-17 09:55:00
5:14 AM,45.0,38.3,77,29.71,10.0,SW,5.8,-,N/A,,Overcast,230,2012-12-17 10:14:00
5:34 AM,44.8,38.3,78,29.72,10.0,WSW,5.8,-,N/A,,Overcast,240,2012-12-17 10:34:00
5:55 AM,44.6,38.5,79,29.72,10.0,WSW,5.8,-,N/A,,Overcast,240,2012-12-17 10:55:00
6:14 AM,44.6,38.5,79,29.73,10.0,WSW,4.6,-,N/A,,Overcast,250,2012-12-17 11:14:00
6:35 AM,44.8,37.8,76,29.73,10.0,West,4.6,-,N/A,,Overcast,270,2012-12-17 11:35:00
6:55 AM,44.8,37.9,77,29.73,10.0,West,3.5,-,N/A,,Overcast,260,2012-12-17 11:55:00
7:14 AM,44.6,38.5,79,29.75,10.0,SW,4.6,-,N/A,,Overcast,230,2012-12-17 12:14:00
7:35 AM,44.1,39.2,83,29.75,10.0,West,6.9,-,N/A,,Overcast,270,2012-12-17 12:35:00
7:55 AM,43.9,38.8,82,29.75,10.0,WSW,5.8,-,N/A,,Overcast,250,2012-12-17 12:55:00
8:14 AM,44.1,38.7,81,29.75,10.0,WSW,3.5,-,N/A,,Overcast,250,2012-12-17 13:14:00
8:35 AM,44.1,38.3,80,29.75,10.0,WSW,4.6,-,N/A,,Overcast,250,2012-12-17 13:35:00
8:55 AM,44.4,38.3,79,29.75,10.0,Calm,Calm,-,N/A,,Overcast,0,2012-12-17 13:55:00
9:14 AM,44.6,37.4,76,29.75,10.0,Calm,Calm,-,N/A,,Overcast,0,2012-12-17 14:14:00
9:35 AM,44.6,37.4,76,29.75,10.0,SW,3.5,-,N/A,,Overcast,230,2012-12-17 14:35:00
9:55 AM,44.6,37.0,75,29.75,10.0,WSW,3.5,-,N/A,,Overcast,240,2012-12-17 14:55:00
10:14 AM,44.8,36.5,73,29.76,10.0,WSW,4.6,-,N/A,,Overcast,240,2012-12-17 15:14:00
10:35 AM,45.0,35.1,68,29.75,10.0,West,3.5,-,N/A,,Overcast,280,2012-12-17 15:35:00
10:54 AM,45.0,35.2,69,29.74,10.0,WNW,3.5,-,N/A,,Overcast,300,2012-12-17 15:54:00
11:15 AM,45.0,35.8,70,29.73,10.0,Calm,Calm,-,N/A,,Overcast,0,2012-12-17 16:15:00
11:35 AM,44.8,35.8,71,29.72,10.0,Calm,Calm,-,N/A,,Overcast,0,2012-12-17 16:35:00
11:54 AM,44.8,35.6,70,29.70,10.0,Calm,Calm,-,N/A,,Overcast,0,2012-12-17 16:54:00
12:15 PM,45.5,35.6,68,29.70,10.0,West,3.5,-,N/A,,Overcast,260,2012-12-17 17:15:00
12:34 PM,45.3,35.6,69,29.69,10.0,Calm,Calm,-,N/A,,Overcast,0,2012-12-17 17:34:00
12:55 PM,45.1,35.6,69,29.69,10.0,Calm,Calm,-,N/A,,Overcast,0,2012-12-17 17:55:00
1:15 PM,45.5,35.4,68,29.69,10.0,WSW,3.5,-,N/A,,Overcast,250,2012-12-17 18:15:00
1:34 PM,45.3,35.1,67,29.68,10.0,Calm,Calm,-,N/A,,Overcast,0,2012-12-17 18:34:00
1:55 PM,45.5,35.1,67,29.67,10.0,West,3.5,-,N/A,,Overcast,270,2012-12-17 18:55:00
2:15 PM,45.3,35.2,68,29.67,10.0,Calm,Calm,-,N/A,,Overcast,0,2012-12-17 19:15:00
2:34 PM,45.5,35.1,67,29.67,10.0,Calm,Calm,-,N/A,,Overcast,0,2012-12-17 19:34:00
2:55 PM,45.1,34.9,67,29.67,10.0,Calm,Calm,-,N/A,,Overcast,0,2012-12-17 19:55:00
3:15 PM,45.7,35.1,66,29.67,10.0,West,3.5,-,N/A,,Overcast,260,2012-12-17 20:15:00
3:34 PM,45.5,34.9,66,29.67,10.0,Calm,Calm,-,N/A,,Overcast,0,2012-12-17 20:34:00
3:55 PM,45.1,35.2,68,29.67,10.0,NW,4.6,-,N/A,,Overcast,320,2012-12-17 20:55:00
4:15 PM,45.0,35.1,68,29.66,10.0,NNW,4.6,-,N/A,,Overcast,330,2012-12-17 21:15:00
4:34 PM,44.8,35.1,69,29.66,10.0,NNW,3.5,-,N/A,,Overcast,330,2012-12-17 21:34:00
4:55 PM,44.6,35.1,69,29.66,10.0,NNW,3.5,-,N/A,,Overcast,330,2012-12-17 21:55:00
7:35 PM,42.8,36.5,78,29.66,10.0,North,8.1,-,N/A,,Overcast,360,2012-12-18 00:35:00
7:54 PM,42.3,35.6,77,29.65,10.0,North,8.1,-,N/A,,Overcast,360,2012-12-18 00:54:00
8:15 PM,42.3,35.6,77,29.65,10.0,North,6.9,-,N/A,,Overcast,10,2012-12-18 01:15:00
8:35 PM,42.1,35.6,78,29.65,10.0,NNE,5.8,-,N/A,,Overcast,20,2012-12-18 01:35:00
8:54 PM,42.1,35.1,76,29.65,10.0,NNE,4.6,-,N/A,,Overcast,20,2012-12-18 01:54:00
9:15 PM,42.1,34.3,74,29.64,10.0,North,4.6,-,N/A,,Overcast,10,2012-12-18 02:15:00
9:35 PM,42.1,34.5,75,29.65,10.0,NE,3.5,-,N/A,,Overcast,40,2012-12-18 02:35:00
9:54 PM,42.1,34.3,74,29.64,10.0,Calm,Calm,-,N/A,,Overcast,0,2012-12-18 02:54:00
10:15 PM,41.9,34.0,73,29.64,10.0,North,5.8,-,N/A,,Overcast,10,2012-12-18 03:15:00
10:35 PM,41.9,33.8,73,29.64,10.0,North,4.6,-,N/A,,Overcast,360,2012-12-18 03:35:00
10:54 PM,42.1,33.1,70,29.65,10.0,NNW,4.6,-,N/A,,Overcast,340,2012-12-18 03:54:00
11:15 PM,42.1,32.9,70,29.64,10.0,NNW,4.6,-,N/A,,Overcast,340,2012-12-18 04:15:00
11:34 PM,42.1,32.5,69,29.64,10.0,NNW,4.6,-,N/A,,Overcast,340,2012-12-18 04:34:00
11:54 PM,42.1,33.3,71,29.65,10.0,North,4.6,-,N/A,Rain,Light Rain,350,2012-12-18 04:54:00